Location: Emporia
(38.4040°N, 96.1810°W)
Time: 14:45:01
(UTC-06:00)

ISS - Visible Passes

Search period start: 20 November 2014 00:00
Search period end: 30 November 2014 00:00
Orbit: 408 x 417 km, 51.6° (Epoch: 20 November)

Date Brightness Start Highest point End Pass type
(mag) Time Alt. Az. Time Alt. Az. Time Alt. Az.
22 Nov -1.2 06:41:18 10° NNW 06:43:50 20° NNE 06:46:23 10° ENE visible
23 Nov -0.9 05:52:31 12° N 05:53:58 15° NNE 05:55:56 10° ENE visible
24 Nov -0.3 05:04:54 11° NNE 05:04:54 11° NNE 05:05:10 10° NE visible
24 Nov -2.3 06:38:11 10° NW 06:41:21 41° NE 06:44:30 10° ESE visible
25 Nov -1.6 05:50:06 19° N 05:51:29 26° NNE 05:54:20 10° E visible
26 Nov -0.6 05:02:30 16° NE 05:02:30 16° NE 05:03:53 10° ENE visible
26 Nov -3.2 06:35:20 11° NW 06:38:28 69° SW 06:41:44 10° SE visible
27 Nov -3.0 05:47:44 41° NNW 05:48:38 61° NE 05:51:54 10° ESE visible
28 Nov -0.9 05:00:10 23° E 05:00:10 23° E 05:01:45 10° E visible
28 Nov -1.8 06:33:00 13° W 06:35:12 23° SW 06:37:52 10° S visible
29 Nov -2.8 05:45:28 43° SW 05:45:28 43° SW 05:48:33 10° SSE visible
